Weather History for Dalhart, TX

Change the Weather History Date:

Sunday, August 5, 2012

  Actual Average Record
Temperature  
Mean Temperature 75 °F 76 °F  
Max Temperature 88 °F 90 °F 101 °F (1959)
Min Temperature 61 °F 62 °F 56 °F (1978)
Degree Days  
Heating Degree Days 0 0  
Month to date heating degree days 0 0  
Since 1 June heating degree days 0 13  
Since 1 July heating degree days 0 1  
Cooling Degree Days 10 11  
Month to date cooling degree days 83 56  
Year to date cooling degree days 1160 733  
Since 1 June cooling degree days 979 661  
Growing Degree Days 24 (Base 50)    
Moisture  
Dew Point 61 °F    
Average Humidity 64    
Maximum Humidity 93    
Minimum Humidity 34    
Precipitation  
Precipitation 0.26 in 0.11 in 1.03 in (2010)
Month to date precipitation 0.73 0.56  
Year to date precipitation 4.55 11.06  
Snow  
Snow 0.00 in 0.00 in 0.00 in ()
Month to date snowfall 0.0 0.0  
Since 1 June snowfall 0.0 0.0  
Since 1 July snowfall 0.0 0.0  
Snow Depth 0.00 in    
Sea Level Pressure  
Sea Level Pressure 30.20 in    
Wind  
Wind Speed 6 mph (NE)    
Max Wind Speed 20 mph    
Max Gust Speed 24 mph    
Visibility 8 miles    
Events Rain , Thunderstorm    
T = Trace of Precipitation, MM = Missing Value Source: NWS Daily Summary

Daily Weather History Graph

Daily Weather History Graph

Search for Another Location

Airport:

Trip Planner

Search our weather history database for the weather conditions in past years. The results will help you decide how hot, cold, wet, or windy it might be!

Date:

Astronomy

Aug. 05, 2012 Rise Set
Actual Time 7:01 AM CDT 8:50 PM CDT
Civil Twilight 6:33 AM CDT 9:18 PM CDT
Nautical Twilight 5:59 AM CDT 9:52 PM CDT
Astronomical Twilight 5:23 AM CDT 10:28 PM CDT
Moon 10:41 PM CDT (8/5) 10:42 AM CDT (8/5)
Length of Visible Light 14h 45m
Length of Day
13h 49m
Waning Gibbous, 86% of the Moon is Illuminated
Aug 5
Waning Gibbous
Aug 9
Last Quarter
Aug 17
New
Aug 24
First Quarter
Aug 31
Full

Hourly Weather History & Observations

Time (CDT) Temp. Heat Index Dew Point Humidity Pressure Visibility Wind Dir Wind Speed Gust Speed Precip Events Conditions
12:53 AM 64.9 °F - 62.1 °F 90% 30.10 in 9.0 mi ENE 11.5 mph - 0.01 in Rain Light Rain
1:53 AM 66.0 °F - 62.1 °F 87% 30.12 in 9.0 mi NNE 13.8 mph - 0.00 in   Mostly Cloudy
2:41 AM 66.2 °F - 60.8 °F 83% 30.28 in 6.0 mi NNE 10.4 mph - 0.01 in Rain , Thunderstorm Light Thunderstorms and Rain
2:53 AM 64.9 °F - 61.0 °F 87% 30.13 in 7.0 mi NE 8.1 mph - 0.02 in Rain , Thunderstorm Light Thunderstorms and Rain
3:23 AM 64.4 °F - 62.6 °F 94% 30.31 in 6.0 mi ENE 8.1 mph - 0.00 in Rain Light Rain
3:33 AM 64.4 °F - 62.6 °F 94% 30.30 in 5.0 mi ENE 9.2 mph - 0.01 in Rain , Thunderstorm Light Rain
3:48 AM 64.4 °F - 62.6 °F 94% 30.30 in 6.0 mi ENE 10.4 mph - 0.01 in Rain Light Rain
3:53 AM 64.0 °F - 62.1 °F 93% 30.15 in 6.0 mi ENE 9.2 mph - 0.01 in Rain Light Rain
4:53 AM 64.0 °F - 60.1 °F 87% 30.17 in 10.0 mi NNE 6.9 mph - 0.00 in   Mostly Cloudy
5:53 AM 63.0 °F - 60.1 °F 90% 30.17 in 10.0 mi NNE 5.8 mph - 0.00 in   Overcast
6:17 AM 62.6 °F - 59.0 °F 88% 30.32 in 8.0 mi NE 5.8 mph - 0.01 in Rain , Thunderstorm Light Thunderstorms and Rain
6:35 AM 62.6 °F - 60.8 °F 94% 30.33 in 8.0 mi NNE 3.5 mph - 0.01 in Rain Light Rain
6:53 AM 63.0 °F - 59.0 °F 87% 30.19 in 5.0 mi NNE 3.5 mph - 0.02 in Rain Rain
7:21 AM 62.6 °F - 59.0 °F 88% 30.35 in 1.8 mi Calm Calm - 0.10 in Rain Heavy Rain
7:49 AM 62.6 °F - 59.0 °F 88% 30.36 in 1.0 mi Calm Calm - 0.21 in Rain , Thunderstorm Light Rain
7:53 AM 62.1 °F - 59.0 °F 90% 30.21 in 4.0 mi North 4.6 mph - 0.21 in Rain , Thunderstorm Light Rain
8:04 AM 62.6 °F - 59.0 °F 88% 30.35 in 10.0 mi North 4.6 mph - 0.00 in   Mostly Cloudy
8:53 AM 63.0 °F - 60.1 °F 90% 30.22 in 8.0 mi North 3.5 mph - 0.00 in   Scattered Clouds
9:53 AM 66.0 °F - 60.1 °F 81% 30.23 in 10.0 mi North 4.6 mph - N/A   Clear
10:53 AM 66.9 °F - 60.1 °F 79% 30.25 in 10.0 mi West 3.5 mph - N/A   Partly Cloudy
11:53 AM 70.0 °F - 62.1 °F 76% 30.24 in 9.0 mi West 3.5 mph - N/A   Clear
12:53 PM 75.0 °F - 64.0 °F 69% 30.21 in 8.0 mi Variable 4.6 mph - N/A   Clear
1:53 PM 79.0 °F - 62.1 °F 56% 30.18 in 9.0 mi Variable 3.5 mph - N/A   Clear
2:53 PM 82.9 °F 82.8 °F 59.0 °F 44% 30.16 in 10.0 mi Variable 3.5 mph - N/A   Clear
3:53 PM 84.0 °F 82.9 °F 55.0 °F 37% 30.13 in 10.0 mi West 4.6 mph - N/A   Clear
4:53 PM 86.0 °F 85.0 °F 57.9 °F 38% 30.11 in 9.0 mi Variable 5.8 mph - N/A   Clear
5:53 PM 87.1 °F 85.9 °F 57.0 °F 36% 30.10 in 5.0 mi Variable 5.8 mph - N/A   Haze
6:53 PM 87.1 °F 85.7 °F 55.9 °F 35% 30.08 in 10.0 mi West 3.5 mph - N/A   Clear
7:53 PM 87.1 °F 85.9 °F 57.0 °F 36% 30.08 in 10.0 mi ENE 3.5 mph - N/A   Clear
8:53 PM 82.0 °F 83.1 °F 63.0 °F 52% 30.08 in 10.0 mi ENE 4.6 mph - N/A   Clear
9:53 PM 75.9 °F - 66.9 °F 74% 30.10 in 7.0 mi East 6.9 mph - N/A   Clear
10:53 PM 75.0 °F - 66.0 °F 73% 30.12 in 10.0 mi East 6.9 mph - N/A   Partly Cloudy
11:53 PM 73.9 °F - 64.9 °F 73% 30.13 in 8.0 mi ESE 12.7 mph - N/A   Partly Cloudy